[[{"header":{"parameterUnit":"m.s-1","parameterCategory":1,"la1":30.2991,"la2":30.254,"lo1":-89.0895,"lo2":-89.0444,"dy":0.0017,"dx":0.0017,"nx":28,"ny":28,"refTime":"2025-01-24T09:00:00:Z","depth":0,"parameterNumber":2,"parameterNumberName":"U-component_of_WINDS"},"data":[0,0,0,0,0,0,0,0,0,0,0,0,0,0,0,0,0,0,0,0,0,0,0,0,0,0,0,0,0,0,0,0,0,0,0,0,0,0,0,0,0,0,0,0,0,0,0,0,0,0,0,0,0,0,0,0,0,0,-4.9822,-4.9823,0,-4.9915,-4.9916,-4.9917,-4.9808,-4.9804,-4.98,-4.9797,-4.9889,-4.9895,-4.9901,0,0,0,0,0,0,0,0,0,0,0,0,0,-4.9549,-4.9555,-4.9822,-4.9823,-4.9825,-4.9914,-4.9916,-4.9917,-4.9809,-4.9804,-4.9799,-4.9795,-4.9887,-4.9894,-4.9902,0,0,0,0,0,0,0,0,0,0,0,0,0,-4.9657,-4.9557,-4.9822,-4.9782,-4.9779,-4.9914,-4.9916,-4.9917,-4.981,-4.9804,-4.9798,-4.9792,-4.9884,-4.9893,-4.9903,-5.0081,0,0,-4.9931,-4.9935,0,0,0,0,0,0,0,0,-4.9651,-4.9667,-4.9786,-4.9785,-4.9782,-4.9844,-4.9853,-4.9972,-4.9812,-4.9798,-4.9797,-4.979,-4.9879,-4.9888,-4.9919,-5.0086,-5.009,-4.9932,-4.9938,-4.9942,-4.9944,0,0,0,0,0,0,0,-4.9644,-4.9663,-4.9859,-4.9788,-4.9786,-4.9758,-4.9766,-4.9875,-4.9871,-4.9799,-4.9791,-4.9804,-4.9876,-4.991,-4.992,-5.0091,-4.9932,-4.994,-4.9946,-4.9949,-5.0404,-5.041,0,0,0,0,0,0,-4.9642,-4.9657,-4.9856,-4.9861,-4.97,-4.9768,-4.9777,-4.983,-4.987,-4.987,-4.9809,-4.9799,-4.9897,-4.9909,-4.9923,-5.013,-4.9942,-4.995,-4.9956,-5.0398,-5.0406,-5.0413,0,0,0,0,0,0,-4.9636,-4.966,-4.9852,-4.9757,-4.978,-4.9779,-4.9839,-4.9835,-4.9868,-4.9877,-4.9876,-4.9844,-4.9893,-4.991,-5.0042,-5.0132,-4.9955,-4.9963,-5.039,-5.04,-5.0409,-5.0549,0,0,0,0,0,0,-4.9629,-4.9659,-4.9728,-4.976,-4.9785,-4.9971,-4.9845,-4.9841,-4.9885,-4.9872,-4.991,-4.991,-4.9889,-5.0028,-5.0051,-5.0141,-4.997,-5.0382,-5.0395,-5.0406,-5.0536,-5.0562,-5.0585,0,0,0,0,0,-4.9619,-4.9764,-4.9732,-4.9756,-4.9871,-4.9976,-4.9991,-4.9964,-4.9893,-4.9961,-4.9966,-4.9909,-5.012,-5.0043,-5.0067,-5.0162,-5.0376,-5.0391,-5.0405,-5.0525,-5.0557,-5.0584,0,0,0,0,0,0,-4.9742,-4.9767,-4.9732,-4.9892,-4.9933,-4.9958,-5.0043,-4.9999,-5.0061,-5.0046,-5.001,-5.0019,-5.0159,-5.0174,-5.0089,-5.0335,-5.0236,-5.0256,-5.0319,-5.0349,-5.0373,-5.0364,-4.9978,0,0,0,0,0,-4.9788,-4.9872,-4.989,-5.0029,-5.0051,-5.0044,-5.0089,-5.0065,-5.0105,-5.0122,-5.0137,-5.0178,-5.0252,-5.0302,-5.0372,-5.054,-5.0543,-5.0617,-5.0641,-5.0661,-5.0677,-5.0762,-5.0793,-5.0461,-5.046,-5.046,0,0,-4.9883,-4.9907,-4.9963,-5.0054,-5.0083,-5.0168,-5.0059,-5.0156,-5.0218,-5.0136,-5.026,-5.0274,-5.0317,-5.0466,-5.0532,-5.0483,-5.077,-5.0679,-5.0695,-5.07,-5.078,-5.0811,-5.0839,-5.047,-5.0469,-5.0467,0,0,-5.0098,-5.0128,-5.0244,-5.0275,-5.0321,-5.0315,-5.0343,-5.0375,-5.038,-5.0505,-5.0444,-5.0518,-5.0649,-5.0681,-5.0714,-5.0942,-5.0889,-5.0966,-5.109,-5.1173,-5.1199,-5.1222,-5.1298,-5.1326,-5.0983,-5.0983,-5.0984,0,-5.021,-5.0338,-5.031,-5.0409,-5.045,-5.0381,-5.0497,-5.0529,-5.0595,-5.0623,-5.0568,-5.0728,-5.0753,-5.0906,-5.0961,-5.0993,-5.102,-5.0959,-5.1198,-5.1221,-5.1242,-5.1314,-5.1343,-5.0992,-5.0991,-5.099,-5.0989,0,-5.0471,-5.0561,-5.0649,-5.0714,-5.0765,-5.0873,-5.0858,-5.0914,-5.0886,-5.0885,-5.1011,-5.1038,-5.111,-5.1146,-5.112,-5.1295,-5.1262,-5.1204,-5.1102,-5.1282,-5.1349,-5.1377,-5.1004,-5.1001,-5.0998,-5.0996,0,0,-5.0763,-5.0811,-5.0843,-5.087,-5.0915,-5.0983,-5.1087,-5.1158,-5.1203,-5.1252,-5.1335,-5.1447,-5.1392,-5.143,-5.1407,-5.1481,-5.1653,-5.1412,-5.1413,-5.1451,-5.1842,-5.1881,-5.1914,-5.1621,-5.1626,-5.1631,-5.1836,0,-5.0975,-5.1155,-5.1132,-5.1303,-5.1383,-5.1319,-5.1409,-5.1445,-5.1448,-5.1515,-5.1518,-5.1596,-5.1521,-5.1542,-5.1613,-5.1617,-5.173,-5.1603,-5.1694,-5.1698,-5.168,-5.195,-5.1993,-5.2185,-5.1863,-5.1867,-5.187,0,-5.1246,-5.1303,-5.1482,-5.1511,-5.1544,-5.1626,-5.1686,-5.1753,-5.1792,-5.1789,-5.1831,-5.1795,-5.1896,-5.1798,-5.1935,-5.1849,-5.1885,-5.1893,-5.19,-5.1903,-5.1791,-5.1955,-5.2247,-5.2273,-5.1912,-5.1909,-5.1906,0,-5.1434,-5.1557,-5.1678,-5.1704,-5.1743,-5.1801,-5.182,-5.1853,-5.1896,-5.195,-5.1977,-5.2043,-5.2077,-5.2128,-5.2109,-5.204,-5.2249,-5.2149,-5.2245,-5.2245,-5.2287,-5.2284,-5.2583,-5.2321,-5.232,-5.232,-5.2319,0,-5.167,-5.1781,-5.1763,-5.1837,-5.1958,-5.1931,-5.2052,-5.2063,-5.2093,-5.2166,-5.2117,-5.2187,-5.2161,-5.2229,-5.2215,-5.2328,-5.2346,-5.2343,-5.2337,-5.2344,-5.2344,-5.2363,-5.2347,-5.2328,-5.2326,-5.2324,-5.2323,0,-5.1899,-5.1892,-5.2019,-5.2046,-5.2055,-5.2143,-5.2165,-5.2233,-5.2233,-5.2326,-5.2347,-5.2345,-5.2422,-5.241,-5.2497,-5.2487,-5.2626,-5.2607,-5.2612,-5.2606,-5.27,-5.2689,-5.3018,-5.3057,-5.2775,-5.2778,-5.278,0,-5.2047,-5.213,-5.2165,-5.2211,-5.2234,-5.231,-5.2353,-5.233,-5.2376,-5.2426,-5.2488,-5.2561,-5.2617,-5.2744,-5.2749,-5.2814,-5.2792,-5.2903,-5.2801,-5.2804,-5.2786,-5.2779,-5.2785,-5.2921,-5.2924,-5.2927,-5.2929,0,-5.2308,-5.23,-5.2365,-5.2428,-5.2481,-5.253,-5.2574,-5.2614,-5.2595,-5.265,-5.2728,-5.2772,-5.2859,-5.2931,-5.2991,-5.3008,-5.2964,-5.2962,-5.2986,-5.2991,-5.2989,-5.2985,-5.2661,-5.2953,-5.2951,-5.2949,-5.2948,-5.2947,-5.2497,-5.2566,-5.2601,-5.2674,-5.2705,-5.2746,-5.2811,-5.2818,-5.2883,-5.2952,-5.2935,-5.3023,-5.3057,-5.3134,-5.3158,-5.3225,-5.3183,-5.322,-5.3228,-5.3236,-5.3245,-5.2984,-5.3236,-5.3236,-5.3235,-5.3235,-5.3234,0,-5.275,-5.277,-5.2837,-5.2899,-5.2956,-5.2913,-5.2959,-5.3008,-5.3086,-5.3123,-5.3179,-5.3267,-5.3336,-5.3348,-5.3412,-5.3463,-5.3444,-5.348,-5.3473,-5.3477,-5.3281,-5.3251,-5.3494,-5.3494,-5.3494,-5.3494,-5.3494,-5.3494,-5.2888,-5.3002,-5.2998,-5.3126,-5.3144,-5.3229,-5.3259,-5.3296,-5.3324,-5.3425,-5.3482,-5.349,-5.3515,-5.3581,-5.3641,-5.3643,-5.3666,-5.3709,-5.3702,-5.3518,-5.3491,-5.3466,-5.3437,-5.3716,-5.3716,-5.3891,-5.3893,-5.3894]},{"header":{"parameterUnit":"m.s-1","parameterCategory":1,"la1":30.2991,"la2":30.254,"lo1":-89.0895,"lo2":-89.0444,"dy":0.0017,"dx":0.0017,"nx":28,"ny":28,"refTime":"2025-01-24T09:00:00:Z","depth":0,"parameterNumber":3,"parameterNumberName":"V-component_of_WINDS"},"data":[0,0,0,0,0,0,0,0,0,0,0,0,0,0,0,0,0,0,0,0,0,0,0,0,0,0,0,0,0,0,0,0,0,0,0,0,0,0,0,0,0,0,0,0,0,0,0,0,0,0,0,0,0,0,0,0,0,0,1.0025,1.0026,0,1.006,1.006,1.0061,1.0078,1.0078,1.0078,1.0078,1.0109,1.011,1.0111,0,0,0,0,0,0,0,0,0,0,0,0,0,0.9972,0.9973,1.0025,1.0026,1.0026,1.006,1.006,1.0061,1.0078,1.0078,1.0078,1.0078,1.0109,1.011,1.0111,0,0,0,0,0,0,0,0,0,0,0,0,0,0.9999,0.9973,1.0025,1.0039,1.004,1.006,1.006,1.0061,1.0078,1.0078,1.0078,1.0078,1.0109,1.011,1.0111,1.0119,0,0,1.0115,1.0116,0,0,0,0,0,0,0,0,0.9998,1.0001,1.0036,1.0038,1.004,1.0065,1.0053,1.008,1.0078,1.0064,1.0078,1.0078,1.0094,1.0097,1.0103,1.012,1.0121,1.0115,1.0116,1.0116,1.0117,0,0,0,0,0,0,0,0.9996,1.0,1.0039,1.0037,1.0039,1.0043,1.0047,1.0058,1.0078,1.0065,1.0066,1.007,1.0095,1.0102,1.0104,1.0122,1.0115,1.0116,1.0117,1.0118,1.015,1.015,0,0,0,0,0,0,0.9992,0.9998,1.0038,1.004,1.0019,1.0044,1.0048,1.0057,1.0078,1.0082,1.007,1.0071,1.01,1.0103,1.0105,1.0117,1.0116,1.0118,1.0118,1.015,1.015,1.015,0,0,0,0,0,0,0.9991,0.9996,1.0036,1.002,1.0025,1.0045,1.0054,1.0057,1.0064,1.0082,1.0086,1.0074,1.01,1.0103,1.0116,1.0118,1.0118,1.0119,1.0149,1.015,1.015,1.014,0,0,0,0,0,0,0.9989,0.9995,0.9998,1.002,1.0026,1.0047,1.0054,1.0058,1.0067,1.0068,1.0086,1.0089,1.01,1.0114,1.0117,1.012,1.012,1.0149,1.0149,1.015,1.014,1.014,1.0139,0,0,0,0,0,0.9987,0.9992,0.9998,1.0003,1.003,1.0047,1.0051,1.0064,1.0067,1.007,1.0082,1.0089,1.0118,1.0115,1.0119,1.0122,1.0149,1.0149,1.015,1.014,1.014,1.0139,0,0,0,0,0,0,0.9968,0.9995,1.0002,1.0014,1.0029,1.005,1.0054,1.0063,1.0076,1.0076,1.0091,1.0095,1.0107,1.0116,1.0113,1.0132,1.0134,1.0135,1.0126,1.0125,1.0125,1.0123,1.0121,0,0,0,0,0,0.9966,0.9978,1.0001,1.0009,1.0016,1.0034,1.0042,1.0052,1.0067,1.0072,1.0085,1.0099,1.0111,1.0119,1.0131,1.0142,1.0147,1.0146,1.0145,1.0145,1.0146,1.0154,1.0155,1.0151,1.0151,1.0151,0,0,0.9959,0.9976,0.9982,1.0006,1.0018,1.003,1.0039,1.0051,1.006,1.0073,1.0087,1.0098,1.0114,1.0126,1.0132,1.0134,1.0148,1.0145,1.0145,1.0146,1.0155,1.0155,1.0155,1.0151,1.0151,1.0151,0,0,0.9956,0.9969,0.9979,0.9992,1.0012,1.0024,1.0027,1.0048,1.0056,1.0071,1.0082,1.0093,1.0113,1.0125,1.0134,1.0138,1.0145,1.0142,1.014,1.0148,1.0148,1.0149,1.0152,1.0152,1.0142,1.0142,1.0142,0,0.9945,0.9965,0.9982,0.9995,1.0005,1.0021,1.0031,1.0043,1.0064,1.0071,1.0073,1.0102,1.0113,1.013,1.0132,1.0138,1.0141,1.0139,1.0147,1.0148,1.0148,1.0151,1.0152,1.0142,1.0142,1.0142,1.0142,0,0.9953,0.9967,0.9972,0.9996,1.0007,1.0018,1.0037,1.0046,1.0056,1.0068,1.0084,1.0099,1.0116,1.0121,1.0129,1.0139,1.014,1.0144,1.0147,1.0148,1.0151,1.0152,1.0141,1.0141,1.0141,1.0142,0,0,0.9935,0.9971,0.9973,0.9985,1.001,1.002,1.0033,1.0052,1.006,1.0075,1.0087,1.0106,1.0111,1.0121,1.0131,1.0138,1.0143,1.0142,1.0143,1.0143,1.0158,1.0155,1.0156,1.0148,1.0149,1.0149,1.0157,0,0.9935,0.996,0.9977,0.9996,1.001,1.0026,1.0038,1.0054,1.0067,1.008,1.0093,1.0107,1.0112,1.0119,1.0127,1.0141,1.0147,1.0141,1.0159,1.016,1.0155,1.0158,1.0154,1.0161,1.0158,1.0159,1.0159,0,0.9938,0.9956,0.9976,1.0003,1.0009,1.0019,1.0039,1.0052,1.0071,1.008,1.0093,1.0104,1.0119,1.0121,1.0142,1.0137,1.0146,1.0155,1.0155,1.0158,1.0159,1.0161,1.0163,1.0164,1.0161,1.016,1.016,0,0.9925,0.9954,0.9971,0.998,1.0011,1.0018,1.0031,1.005,1.0062,1.0079,1.0087,1.0105,1.0114,1.0128,1.0144,1.0144,1.0164,1.0167,1.0172,1.0171,1.0175,1.0174,1.0179,1.018,1.018,1.0179,1.0179,0,0.9923,0.9935,0.9966,0.9976,0.9991,1.0011,1.0024,1.0038,1.0056,1.007,1.0084,1.0096,1.0117,1.0131,1.0144,1.016,1.0164,1.0172,1.0175,1.0171,1.017,1.0177,1.0177,1.018,1.018,1.018,1.018,0,0.991,0.9931,0.9951,0.998,0.9987,0.9997,1.0021,1.0032,1.0047,1.0064,1.0069,1.0092,1.011,1.0128,1.0151,1.016,1.0177,1.018,1.0171,1.0173,1.0177,1.0177,1.0187,1.019,1.0187,1.0187,1.0187,0,0.9908,0.9918,0.9949,0.9961,0.9974,0.9991,1.0004,1.0025,1.0037,1.0062,1.007,1.009,1.0107,1.0136,1.0154,1.0173,1.0178,1.018,1.018,1.0177,1.0179,1.0179,1.0181,1.0179,1.0179,1.0179,1.0179,0,0.9902,0.9913,0.9931,0.9955,0.997,0.9989,1.0007,1.0016,1.004,1.0053,1.0074,1.0087,1.0114,1.0134,1.0155,1.0168,1.0178,1.018,1.0182,1.0178,1.0173,1.0177,1.017,1.0179,1.0179,1.0179,1.0179,1.0179,0.9895,0.9906,0.9931,0.9952,0.997,0.9988,1.0001,1.0019,1.0037,1.0061,1.0072,1.0093,1.0115,1.0145,1.0158,1.0175,1.0177,1.018,1.0181,1.0182,1.0182,1.017,1.0178,1.0179,1.0179,1.0179,1.0179,0,0.9891,0.9909,0.9929,0.9957,0.9974,0.9984,1.0007,1.002,1.0039,1.0059,1.0077,1.0102,1.0122,1.0143,1.0165,1.0174,1.0179,1.0179,1.0179,1.0182,1.0177,1.0174,1.0175,1.0175,1.0175,1.0175,1.0175,1.0175,0.9891,0.9912,0.9926,0.9956,0.9973,0.9996,1.0008,1.0026,1.0042,1.007,1.0088,1.0103,1.0124,1.0148,1.0167,1.0173,1.018,1.0179,1.0186,1.0182,1.0182,1.0182,1.0179,1.018,1.018,1.0189,1.019,1.019]}]]